Orbital Elements at Epoch 2459200.5 (2020-Dec-17.0) TDB
Reference: JPL 30 (heliocentric ecliptic J2000)
Element | Value | Uncertainty (1-sigma) | Units |
e | .1213687377468354 | 4.0354e-08 | |
a | 2.851583759821612 | 1.5065e-08 | au |
q | 2.505490638312688 | 1.1755e-07 | au |
i | 4.60491879439412 | 4.3642e-06 | deg |
node | 204.4417185041826 | 5.3672e-05 | deg |
peri | 152.462160856413 | 5.6386e-05 | deg |
M | 152.3608760337904 | 1.7546e-05 | deg |
tp | 2458456.113332174054 (2018-Dec-03.61333217) | 8.489e-05 | TDB |
period | 1758.8452324067 4.82 | 1.3938e-05 3.816e-08 | d yr |
n | .2046797486026654 | 1.622e-09 | deg/d |
Q | 3.197676881330537 | 1.6893e-08 | au |
|
| | Orbit Determination Parameters
Additional Information
|